Regional Weather Roundup
Issued by NWS

Home | Current Version | Previous Version | Text Only | Print | Product List | Glossary Off
Versions: 1 2 3 4 5 6 7 8 9 10 11 12 13 14 15 16 17 18 19 20 21 22 23 24 25 26 27 28 29 30 31 32 33 34 35 36 37 38 39 40 41 42 43 44 45 46 47 48 49 50

000
ASUS43 KDTX 271210
RWRMI
MICHIGAN HOURLY REGIONAL WEATHER ROUNDUP
NATIONAL WEATHER SERVICE DETROIT/PONTIAC MI
700 AM EST THU NOV 27 2014

NOTE: "FAIR" INDICATES FEW OR NO CLOUDS BELOW 12,000 FEET WITH NO
SIGNIFICANT WEATHER AND/OR OBSTRUCTION TO VISIBILITY.

MIZ047>049-052>055-059>063-066>070-074>076-081>083-271300-
SOUTHEAST LOWER MICHIGAN

CITY           SKY/WX    TMP DP  RH WIND       PRES   REMARKS
ADRIAN         CLOUDY    27  20  75 NW7       30.15R
6HR MIN TEMP:  27; 6HR MAX TEMP:  30;

ALMA           MOCLDY    27  24  89 W7        30.14S
ANN ARBOR      MOCLDY    28  17  63 NW5       30.12R
BAD AXE        CLOUDY    28  24  84 W8        30.08S
6HR MIN TEMP:  26; 6HR MAX TEMP:  29;

DETROIT CITY   MOCLDY    30  21  69 NW6       30.12R
6HR MIN TEMP:  30; 6HR MAX TEMP:  33;

DETROIT        MOCLDY    27  20  75 CALM      30.13R
6HR MIN TEMP:  26; 6HR MAX TEMP:  31; 6HR PCP: TRACE;

FLINT          CLOUDY    29  23  78 NW8       30.13R
6HR MIN TEMP:  25; 6HR MAX TEMP:  30;

GROSSE ILE     CLOUDY    28  21  74 NW6       30.12R
HILLSDALE      CLOUDY    27  22  80 NW5       30.12S
6HR MIN TEMP:  26; 6HR MAX TEMP:  28;

HOWELL         CLOUDY    28  22  79 W6        30.11R
6HR MIN TEMP:  25; 6HR MAX TEMP:  28;


CITY           SKY/WX    TMP DP  RH WIND       PRES   REMARKS
JACKSON        CLOUDY    27  21  78 NW7       30.13R
6HR MIN TEMP:  26; 6HR MAX TEMP:  28; 6HR PCP: TRACE;

LAMBERTVILLE   MOCLDY    30  23  74 W3        30.15R
LANSING        CLOUDY    28  21  75 NW8       30.15R
6HR MIN TEMP:  27; 6HR MAX TEMP:  28;

LAPEER         NOT AVBL
MASON          CLOUDY    28  23  80 NW8       30.13R
MONROE         CLOUDY    27  21  80 CALM      30.12R
MT. CLEMENS    CLOUDY    28  24  88 W7        30.09R
6HR MIN TEMP:  28; 6HR MAX TEMP:  30;

PONTIAC        CLOUDY    26  20  77 W7        30.10R
6HR MIN TEMP:  23; 6HR MAX TEMP:  28;

PORT HOPE        N/A     31  24  75 W8        30.05S
6HR MIN TEMP:  31; 6HR MAX TEMP:  32;

PORT HURON     CLOUDY    28  23  80 W6        30.10R
TRI CITIES     CLOUDY    30  23  75 W10       30.13R
6HR MIN TEMP:  28; 6HR MAX TEMP:  30;

YPSILANTI      MOCLDY    29  19  66 NW8       30.13R
6HR MIN TEMP:  29; 6HR MAX TEMP:  33;

$$
MIZ043>046-050>051-056>058-064>065-071>073-077>080-271300-
SOUTHWEST LOWER MICHIGAN

CITY           SKY/WX    TMP DP  RH WIND       PRES   REMARKS
BATTLE CREEK   MOCLDY    28  20  71 W6        30.15S
6HR MIN TEMP:  28; 6HR MAX TEMP:  30;

BENTON HARBOR  LGT SNOW  28  27  96 CALM      30.19S FOG
6HR MIN TEMP:  27; 6HR MAX TEMP:  27; 6HR PCP:  0.04;

BIG RAPIDS     LGT SNOW  26  25  96 W3        30.13R
6HR MIN TEMP:  26; 6HR MAX TEMP:  28;

COLDWATER      CLOUDY    29  24  81 W6        30.15R
6HR MIN TEMP:  29; 6HR MAX TEMP:  30;

HOLLAND        LGT SNOW  30  26  85 CALM      30.18R FOG
6HR MIN TEMP:  30; 6HR MAX TEMP:  31; 6HR PCP:  0.02;

GRAND RAPIDS   MOCLDY    27  22  81 NW6       30.16R
6HR MIN TEMP:  27; 6HR MAX TEMP:  29; 6HR PCP: TRACE;

KALAMAZOO      CLOUDY    28  21  75 W3        30.17R
6HR MIN TEMP:  28; 6HR MAX TEMP:  29;

MARSHALL       CLOUDY    27  21  79 W3        30.14S
MUSKEGON       LGT SNOW  28  25  86 N3        30.18R VSB 1
6HR MIN TEMP:  29; 6HR MAX TEMP:  30; 6HR PCP:  0.02;

$$
MIZ016>042-271300-
NORTHERN LOWER MICHIGAN

CITY           SKY/WX    TMP DP  RH WIND       PRES   REMARKS
ALPENA         LGT SNOW  26  24  92 W6        30.10S FOG
6HR MIN TEMP:  24; 6HR MAX TEMP:  26; 6HR PCP:  0.01;

BEAVER ISLAND  CLOUDY    24  17  76 N12G22    30.19R
6HR MIN TEMP:  24; 6HR MAX TEMP:  28;

BELLAIRE       FLURRIES  27  22  82 N7        30.17R
CADILLAC       FLURRIES  23  21  91 NW5       30.09S
CHARLEVOIX     LGT SNOW  25  20  82 N16G28    30.20R
6HR MIN TEMP:  25; 6HR MAX TEMP:  29;

FRANKFORT      LGT SNOW  28  25  89 N10       30.17R
GAYLORD        LGT SNOW  24  20  84 N7        30.09R FOG
6HR MIN TEMP:  23; 6HR MAX TEMP:  24; 6HR PCP:  0.01;

GRAYLING       CLOUDY    26  23  91 CALM      30.11R
6HR MIN TEMP:  25; 6HR MAX TEMP:  28;

HARBOR SPRINGS CLOUDY    24  18  77 N9G18     30.16R
HOUGHTON LAKE  FLURRIES  25  22  88 NW7       30.10S
6HR MIN TEMP:  25; 6HR MAX TEMP:  26; 6HR PCP:  0.01;

MANISTEE       CLOUDY    28  23  80 NE6       30.17R
OSCODA         LGT SNOW  27  24  90 NW9       30.09R
PELLSTON       CLOUDY    23  17  78 N17       30.17R
6HR MIN TEMP:  22; 6HR MAX TEMP:  27; 6HR PCP:  0.01;

TRAVERSE CITY  LGT SNOW  28  21  75 N16G24    30.15R
6HR MIN TEMP:  26; 6HR MAX TEMP:  29; 6HR PCP:  0.01;

$$
MIZ007>008-015-271300-
EASTERN UPPER MICHIGAN

CITY           SKY/WX    TMP DP  RH WIND       PRES   REMARKS
KINROSS        CLOUDY    21  21 100 W14G20    30.13R
6HR MIN TEMP:  21; 6HR MAX TEMP:  25;

MACKINAC ISLAN CLOUDY    23  17  79 NW20G28   30.15R
6HR MIN TEMP:  23; 6HR MAX TEMP:  28; 6HR PCP:  0.01;

NEWBERRY       PTCLDY    17  14  87 NW8       30.17R
6HR MIN TEMP:  17; 6HR MAX TEMP:  23;

S. S. MARIE    MOCLDY    23  14  68 NW12G20   30.12F
6HR MIN TEMP:  23; 6HR MAX TEMP:  26; 6HR PCP:  0.09;

$$
MIZ004>006-011>014-085-271300-
CENTRAL UPPER MICHIGAN

CITY           SKY/WX    TMP DP  RH WIND       PRES   REMARKS
MANISTIQUE     PTCLDY    18  14  85 NW16      30.19S
6HR MIN TEMP:  18; 6HR MAX TEMP:  24;

ESCANABA       PTCLDY    16   5  62 NW13G21   30.25R
6HR MIN TEMP:  16; 6HR MAX TEMP:  25;

MENOMINEE      CLOUDY    16   9  73 N10       30.27R
6HR MIN TEMP:  16; 6HR MAX TEMP:  25;

SAWYER-GWINN   CLEAR      9   1  72 NW12      30.23R WCI  -6
$$
MIZ001>003-009>011-084-271300-
WESTERN UPPER MICHIGAN

CITY           SKY/WX    TMP DP  RH WIND       PRES   REMARKS
IRON MOUNTAIN  CLEAR      6   1  80 NW8       30.26R
6HR MIN TEMP:   6; 6HR MAX TEMP:  20; 6HR PCP: TRACE;

HOUGHTON       FLURRIES   7  -1  70 N9        30.29R
6HR MIN TEMP:   7; 6HR MAX TEMP:  11; 6HR PCP: TRACE;

COPPER HARBOR    N/A     14   6  70 NE17      30.30R WCI  -3
6HR MIN TEMP:  14; 6HR MAX TEMP:  19;

IRONWOOD       CLOUDY    10   7  85 NW5       30.30S
6HR MIN TEMP:  10; 6HR MAX TEMP:  16;

$$

ABBREVIATIONS USED IN REMARKS
   TC - TEMPERATURE IN CELSIUS
  WCI - WIND CHILL INDEX
   HX - HEAT INDEX
  VSB - VISIBILITY



USA.gov is the U.S. government's official web portal to all federal, state and local government web resources and services.